Regional Weather Roundup
Issued by NWS

Home | Current Version | Previous Version | Graphics & Text | Print | Product List | Glossary On
Versions: 1 2 3 4 5 6 7 8 9 10 11 12 13 14 15 16 17 18 19 20 21 22 23 24 25 26 27 28 29 30 31 32 33 34 35 36 37 38 39 40 41 42 43 44 45 46 47 48 49 50
000
ASUS43 KDTX 210510
RWRMI
MICHIGAN HOURLY REGIONAL WEATHER ROUNDUP
NATIONAL WEATHER SERVICE DETROIT/PONTIAC MI
100 AM EDT SUN SEP 21 2014

NOTE: "FAIR" INDICATES FEW OR NO CLOUDS BELOW 12,000 FEET WITH NO
SIGNIFICANT WEATHER AND/OR OBSTRUCTION TO VISIBILITY.

MIZ047>049-052>055-059>063-066>070-074>076-081>083-210600-
SOUTHEAST LOWER MICHIGAN

CITY           SKY/WX    TMP DP  RH WIND       PRES   REMARKS
ADRIAN         CLOUDY    63  62  97 SW6       29.80F
ALMA           CLOUDY    65  63  94 SW8       29.71F FOG
ANN ARBOR      CLOUDY    66  62  87 SW13G18   29.77F
BAD AXE        PTCLDY    65  65 100 SW7       29.71F
CARO           CLOUDY    64  63  97 SW12      29.72S
DETROIT CITY   CLOUDY    68  63  84 SW12      29.77F
DETROIT        CLOUDY    65  63  93 S13       29.78F
FLINT          CLOUDY    65  62  90 SW10      29.75S
GROSSE ILE     CLOUDY    64  63  94 SW10      29.78F
HILLSDALE      MOCLDY    65  65 100 SW6       29.79F
HOWELL         CLOUDY    64  63  96 SW8       29.76F

CITY           SKY/WX    TMP DP  RH WIND       PRES   REMARKS
JACKSON        CLOUDY    66  63  90 SW8       29.77F
LAMBERTVILLE   CLOUDY    64  63  94 S7        29.80F
LANSING        CLOUDY    64  61  90 SW15      29.74F
LAPEER         MOCLDY    62  60  93 SW9       29.74F
MASON          CLOUDY    64  63  94 S3        29.75F
MONROE         PTCLDY    64  63  94 SW12G17   29.78F
MT. CLEMENS    CLOUDY    65  65 100 SW12      29.74F
PONTIAC        CLOUDY    64  62  93 SW9       29.76F
PORT HOPE        N/A     66  63  90 VRB7      29.68F
PORT HURON     CLOUDY    63  63 100 SW7       29.75F
TRI CITIES     CLOUDY    67  64  90 SW10      29.71F
TROY           CLOUDY    66  63  90 SW8       29.78F
SAGINAW HB     CLOUDY    64  64 100 SW9       29.71S
$$
MIZ043>046-050>051-056>058-064>065-071>073-077>080-210600-
SOUTHWEST LOWER MICHIGAN

CITY           SKY/WX    TMP DP  RH WIND       PRES   REMARKS
BATTLE CREEK   CLOUDY    66  64  93 SW12      29.76F
BENTON HARBOR  PTCLDY    65  64  97 S7        29.73F FOG
BIG RAPIDS     CLOUDY    64  64 100 SW5       29.68F
COLDWATER      CLOUDY    67  65  96 SW8       29.77F
FREMONT        FAIR      60  60  98 CALM      29.68F FOG
HOLLAND        PTCLDY    68  65  90 SW13      29.70F
GRAND RAPIDS   MOCLDY    66  66 100 S10       29.71F FOG
IONIA          MOCLDY    65  64  96 SW8       29.71F
KALAMAZOO      CLOUDY    67  65  93 SW9       29.74F FOG
LUDINGTON      PTCLDY    64  62  91 W9G17     29.65F
MARSHALL       CLOUDY    65  64  94 SW7       29.76F
MOUNT PLEASANT CLOUDY    64  63  94 SW7       29.68F
MUSKEGON       PTCLDY    66  59  78 SW12      29.68F
SOUTH HAVEN    CLEAR     66  65  95 S6        29.72F
$$
MIZ016>042-210600-
NORTHERN LOWER MICHIGAN

CITY           SKY/WX    TMP DP  RH WIND       PRES   REMARKS
ALPENA         CLOUDY    62  61  96 SW3       29.67S
BEAVER ISLAND  CLOUDY    56  55  95 CALM      29.67S
BELLAIRE       CLOUDY    61  58  92 CALM      29.67S
CADILLAC       CLOUDY    63  62  98 W5        29.67F
CHARLEVOIX     CLOUDY    60  59  98 CALM      29.69F
FRANKFORT      MOCLDY    60  57  90 CALM      29.64F
GAYLORD        CLOUDY    60  56  86 N5        29.68F
GRAYLING       LGT RAIN  60  60 100 CALM      29.69S
HARBOR SPRINGS MOCLDY    58  56  91 CALM      29.67F
HOUGHTON LAKE  TSTM      59  57  93 SW9       29.70S FOG
MANISTEE       CLOUDY    63  59  88 CALM      29.65F
OSCODA         CLOUDY    63  63  99 SW6       29.67S FOG
PELLSTON       CLOUDY    56  56 100 NW3       29.67F
ROGERS CITY    CLOUDY    59  59 100 CALM      29.67S
TRAVERSE CITY  LGT RAIN  62  60  93 CALM      29.65F
$$
MIZ007>008-015-210600-
EASTERN UPPER MICHIGAN

CITY           SKY/WX    TMP DP  RH WIND       PRES   REMARKS
KINROSS        CLOUDY    54  54 100 NW7       29.65F
MACKINAC ISLAN CLOUDY    56  55  97 NW6       29.66S
NEWBERRY       CLOUDY    53  52  97 N12       29.66F
S. S. MARIE    CLOUDY    51  50  96 NW6       29.65S FOG
MUNISING         N/A     56  52  86 N15       29.67F
$$
MIZ004>006-011>014-085-210600-
CENTRAL UPPER MICHIGAN

CITY           SKY/WX    TMP DP  RH WIND       PRES   REMARKS
MANISTIQUE     MOCLDY    51  51  98 N7        29.65F
ESCANABA       CLOUDY    55  52  88 N7        29.67F
MENOMINEE      CLOUDY    57  54  88 E17       29.65F
SAWYER-GWINN   CLOUDY    53  51  93 N14       29.67F
$$
MIZ001>003-009>011-084-210600-
WESTERN UPPER MICHIGAN

CITY           SKY/WX    TMP DP  RH WIND       PRES   REMARKS
IRON MOUNTAIN  CLOUDY    57  52  83 VRB5      29.67S
HOUGHTON       CLOUDY    53  49  86 NE9       29.70F
COPPER HARBOR    N/A     51  48  89 NE3       29.73R
IRONWOOD       CLOUDY    54  54 100 W5        29.67S
$$

ABBREVIATIONS USED IN REMARKS
   TC - TEMPERATURE IN CELSIUS
  WCI - WIND CHILL INDEX
   HX - HEAT INDEX
  VSB - VISIBILITY



USA.gov is the U.S. government's official web portal to all federal, state and local government web resources and services.